Regional Weather Roundup
Issued by NWS

Home | Current Version | Previous Version | Text Only | Print | Product List | Glossary On
Versions: 1 2 3 4 5 6 7 8 9 10 11 12 13 14 15 16 17 18 19 20 21 22 23 24 25 26 27 28 29 30 31 32 33 34 35 36 37 38 39 40 41 42 43 44 45 46 47
000
ASUS46 KPQR 281010
RWROR

OREGON REGIONAL WEATHER ROUNDUP
NATIONAL WEATHER SERVICE PORTLAND OR
200 AM PST SUN DEC 28 2014

NOTE: "FAIR" INDICATES FEW OR NO CLOUDS BELOW 12,000 FEET WITH
NO SIGNIFICANT WEATHER AND/OR OBSTRUCTIONS TO VISIBILITY.

ORZ001>013-281100-
NORTHWEST OREGON


CITY           SKY/WX    TMP DP  RH WIND       PRES   REMARKS
ASTORIA        PTCLDY    47  39  74 W13G23    30.19R
NEWPORT        PTCLDY    48  41  76 W15       30.30F
PORTLAND       LGT RAIN  44  41  89 SW8       30.21R
VANCOUVER WA   CLOUDY    44  39  82 CALM      30.21R
SCAPPOOSE      LGT RAIN  44  39  82 W9        30.20R
HILLSBORO      CLOUDY    37  37 100 CALM      30.21R FOG
AURORA         MOCLDY    43  39  86 SW7       30.23S
MCMINNVILLE    PTCLDY    45  40  82 SW9       30.23S
SALEM          PTCLDY    44  39  82 SW7       30.24R
CORVALLIS      CLOUDY    45  39  81 CALM      30.28R
EUGENE         PTCLDY    43  38  82 SW8       30.30R
$$

ORZ021-028-281100-
SOUTHWEST OREGON


CITY           SKY/WX    TMP DP  RH WIND       PRES   REMARKS
NORTH BEND     CLOUDY    50  46  87 NW13      30.34S
BROOKINGS      CLOUDY    46  45  97 VRB6      30.36S FOG
ROSEBURG       LGT RAIN  46  44  93 VRB3      30.30S
SEXTON SUMMIT  SNOW      32  32 100 SW14G20   30.24S VSB 1/4 WCI  22
MEDFORD        CLOUDY    40  38  93 NE3       30.34S
$$

ORZ014>016-041-281100-
COLUMBIA GORGE


CITY           SKY/WX    TMP DP  RH WIND       PRES   REMARKS
TROUTDALE      LGT RAIN  46  39  76 SW13      30.19S
THE DALLES     CLOUDY    42  37  82 NW5       30.12R
$$

ORZ029>031-041-044-049-050-061>064-502-503-505>511-281100-
EASTERN OREGON


CITY           SKY/WX    TMP DP  RH WIND       PRES   REMARKS
REDMOND        PTCLDY    36  28  73 N7G18     30.09S WCI  30
BEND           PTCLDY    32  28  86 CALM      30.10S
PRINEVILLE     CLEAR     34  28  80 W9        30.10S WCI  26
KLAMATH FALLS  CLOUDY   N/A N/A N/A SW12      30.21S
LAKEVIEW       CLOUDY    30  27  86 SE16G22   30.18S WCI  19
HERMISTON      PTCLDY    40  30  67 SW10      30.05S WCI  33
PENDLETON      CLOUDY    40  30  67 W22       30.03R WCI  30
JOHN DAY       FOG       32  32  99 CALM      30.07R VSB 3/4
MEACHAM        FLURRIES  32  27  81 W5        29.99S WCI  27
LA GRANDE      MOCLDY    28  19  69 SE8       30.01S WCI  20
BAKER CITY     NOT AVBL
BURNS          FLURRIES  33  31  92 SW12      30.06R WCI  24
ROME             N/A     38  25  59 SW10      30.07R WCI  31
ONTARIO        CLOUDY    31  29  92 E3        30.11F
$$


USA.gov is the U.S. government's official web portal to all federal, state and local government web resources and services.